Location: Innerarity Island Observatory
(30.3139°N, 87.4867°W)
Time: 14:08:32
(UTC-05:00)

Amateur Radio Satellites - All Passes

Search period start: 22 May 2015 13:38
Search period end: 23 May 2015 13:38
Location: Innerarity Island Observatory, 30.3139°N, 87.4867°W

Satellite Date Start Highest point End Downlink Frequencies (MHz)
Time Altitude Azimuth
JUGNU 22 May 13:48:34 13:53:32 29° 176° (S) 13:58:31 437.505
SPROUT 22 May 13:48:53 13:52:28 25° 287° (WNW) 13:55:57 437.525
Oscar 19 22 May 13:50:52 13:56:03 71° 258° (WSW) 14:01:15 437.125/150
ITAMSAT 1 22 May 13:54:10 13:58:39 32° 72° (ENE) 14:03:15 435.822/435.867
Gurwin Techsat 1B 22 May 14:01:24 14:06:09 35° 72° (ENE) 14:10:59 435.225
Cosmos 2499 22 May 14:07:35 14:10:33 13° 85° (E) 14:14:10 435.465 / 435.565
CUSAT 1 22 May 14:18:52 14:25:06 52° 284° (WNW) 14:32:43 437.405
ITUPSAT 1 22 May 14:32:01 14:36:49 85° 100° (E) 14:41:36 437.325
TISAT 1 22 May 14:35:09 14:35:56 10° 291° (WNW) 14:36:25 437.305
KKS-1 22 May 14:35:26 14:37:14 13° 92° (E) 14:39:18 437.445
BEESAT 22 May 14:43:08 14:47:53 70° 284° (WNW) 14:52:38 436.000
SWISSCUBE 22 May 14:50:53 14:55:32 52° 285° (WNW) 15:00:08 437.505
GONETS M04 22 May 14:53:35 15:01:52 42° 283° (WNW) 15:10:04
SRMSAT 22 May 14:55:50 15:00:42 27° 173° (S) 15:05:35 437.500
DANDE 22 May 14:56:09 15:01:47 34° 289° (WNW) 15:08:34 436.750
SO-50 22 May 15:04:54 15:08:41 22° 250° (WSW) 15:12:17 436.795
AO-7 22 May 15:24:23 15:32:04 46° 68° (ENE) 15:39:52 29.400- 29.500
JAS-2 22 May 15:26:58 15:33:45 47° 74° (ENE) 15:39:51 435.910
ITAMSAT 1 22 May 15:34:09 15:38:12 23° 265° (W) 15:42:08 435.822/435.867
JUGNU 22 May 15:37:13 15:42:05 27° 186° (S) 15:46:56 437.505
Gurwin Techsat 1B 22 May 15:42:10 15:46:14 21° 266° (W) 15:50:07 435.225
STARS 22 May 15:50:06 15:54:30 63° 101° (E) 15:58:52 437.465
HORYU 2 22 May 15:53:35 15:58:04 89° 79° (E) 16:02:35 437.375
Cosmos 2499 22 May 15:54:34 16:03:06 87° 275° (W) 16:11:01 435.465 / 435.565
KKS-1 22 May 16:09:52 16:14:07 42° 286° (WNW) 16:18:18 437.445
O/OREOS (USA 219) 22 May 16:34:12 16:38:45 88° 288° (WNW) 16:43:17 437.305
SRMSAT 22 May 16:44:22 16:49:24 29° 183° (S) 16:54:28 437.500
MOZHAYETS 4 22 May 17:02:13 17:06:34 45° 99° (E) 17:10:57
CUTE-I 22 May 17:11:18 17:13:34 13° 67° (ENE) 17:16:08 437.470
JAS-2 22 May 17:13:07 17:18:53 25° 264° (W) 17:23:59 435.910
AO-7 22 May 17:17:44 17:25:00 32° 262° (W) 17:32:05 29.400- 29.500
RS-15 22 May 17:24:23 17:32:35 22° 40° (NE) 17:41:34 29.354- 29.394
JUGNU 22 May 17:26:53 17:30:35 17° 195° (SSW) 17:34:12 437.505
Cubesat XI-IV 22 May 17:28:41 17:32:28 21° 70° (ENE) 17:36:27 437.490
Cosmos 2499 22 May 17:53:59 17:57:19 12° 292° (WNW) 17:59:51 435.465 / 435.565
BEESAT 3 22 May 17:54:08 17:55:43 12° 109° (ESE) 17:57:32 437.485
CUBESAT XI-V 22 May 18:27:16 18:31:12 27° 96° (E) 18:35:14 437.345
SRMSAT 22 May 18:33:44 18:38:06 21° 192° (SSW) 18:42:27 437.500
BEESAT 2 22 May 18:33:58 18:37:34 31° 112° (ESE) 18:41:15 435.950
MOZHAYETS 4 22 May 18:41:16 18:43:28 13° 290° (WNW) 18:45:25
Cosmos 2491 22 May 18:43:03 18:48:53 21° 85° (E) 18:55:12 435.465 / 435.565
YUBILEINY 22 May 18:46:31 18:54:25 39° 76° (ENE) 19:02:26 435.215
PRISM 22 May 18:47:00 18:49:42 17° 95° (E) 18:52:33 437.425
CUTE-I 22 May 18:47:58 18:53:12 60° 259° (W) 18:58:27 437.470
Cubesat XI-IV 22 May 19:07:27 19:12:22 37° 262° (W) 19:17:14 437.490
HO-68 22 May 19:20:57 19:25:05 17° 63° (ENE) 19:29:36 435.675
M-CUBED/EXP-1 PRIME 22 May 19:21:56 19:23:59 16° 100° (E) 19:26:10 437.505
STRAND 1 22 May 19:23:30 19:28:23 44° 99° (E) 19:33:18 437.568
BRITE-PL 22 May 19:27:01 19:30:44 23° 70° (ENE) 19:34:50 437.365/2234.400
BEESAT 3 22 May 19:29:34 19:33:23 38° 301° (WNW) 19:37:14 437.485
AIST 2 22 May 19:29:53 19:33:46 37° 113° (ESE) 19:37:44 435.215
AUBIESAT-1 22 May 19:34:28 19:36:58 20° 101° (E) 19:39:33 437.475
RS-15 22 May 19:35:13 19:47:03 85° 63° (ENE) 19:59:19 29.354- 29.394
DOVE 4 22 May 19:42:59 19:45:18 14° 68° (ENE) 19:47:57 437.250
GOMX 1 22 May 19:54:12 19:58:19 29° 72° (ENE) 20:02:47 467.674
CUBESAT XI-V 22 May 20:04:52 20:08:31 22° 288° (WNW) 20:12:04 437.345
BEESAT 2 22 May 20:12:56 20:15:44 17° 307° (NW) 20:18:26 435.950
AAUSAT CUBESAT 2 22 May 20:15:03 20:17:00 13° 71° (ENE) 20:19:10 437.432
PRISM 22 May 20:21:39 20:25:10 27° 287° (WNW) 20:28:38 437.425
CANX-2 22 May 20:36:05 20:40:15 55° 77° (ENE) 20:44:28 2200.000
Cosmos 2491 22 May 20:36:27 20:45:08 64° 279° (W) 20:53:52 435.465 / 435.565
CUTE 1.7 + AOD 2 22 May 20:40:25 20:44:35 55° 76° (ENE) 20:48:47 437.475
YUBILEINY 22 May 20:43:27 20:51:10 36° 271° (W) 20:58:41 435.215
UWE-3 22 May 20:44:28 20:44:56 10° 69° (ENE) 20:45:45 435.000/436.395/437.385
AIST 1 22 May 20:53:59 20:57:55 39° 93° (E) 21:01:54
M-CUBED/EXP-1 PRIME 22 May 20:56:37 20:58:50 17° 292° (WNW) 21:00:57 437.505
STRAND 1 22 May 21:03:59 21:07:17 17° 291° (WNW) 21:10:22 437.568
BRITE-PL 22 May 21:04:56 21:09:06 29° 266° (W) 21:13:30 437.365/2234.400
HO-68 22 May 21:05:01 21:12:12 73° 257° (WSW) 21:19:24 435.675
FUNcube-1 22 May 21:05:47 21:08:04 14° 70° (ENE) 21:10:36 145.935
AIST 2 22 May 21:09:47 21:12:31 16° 308° (NW) 21:15:07 435.215
AUBIESAT-1 22 May 21:09:57 21:11:40 13° 293° (WNW) 21:13:12 437.475
SEEDS 22 May 21:10:39 21:14:53 74° 259° (W) 21:19:07 437.485
Cosmos 2504 22 May 21:11:31 21:17:29 28° 75° (ENE) 21:23:36 435.465 / 435.565
DELFI C3 22 May 21:13:40 21:16:39 21° 73° (ENE) 21:19:45 145.870
DOVE 4 22 May 21:17:47 21:22:33 54° 261° (W) 21:27:37 437.250
CUBEBUG 2 22 May 21:19:11 21:23:26 35° 74° (ENE) 21:27:48 437.445
CINEMA 3 22 May 21:31:12 21:36:04 81° 259° (WSW) 21:41:06 145.822/145.860
COMPASS 1 22 May 21:31:53 21:35:59 49° 261° (W) 21:40:04 437.405
GOMX 1 22 May 21:32:26 21:36:26 24° 267° (W) 21:40:31 467.674
ZACube-1 22 May 21:42:06 21:46:20 39° 74° (ENE) 21:50:39 437.345
AAUSAT CUBESAT 2 22 May 21:48:28 21:52:20 35° 262° (W) 21:56:11 437.432
RS-15 22 May 21:50:28 21:58:39 20° 256° (WSW) 22:06:02 29.354- 29.394
VELOX 1 22 May 21:54:34 21:55:34 11° 69° (ENE) 21:56:52 145.980
UKube-1 22 May 21:55:05 21:58:27 23° 72° (ENE) 22:01:57 .
DX 1 22 May 21:56:26 22:00:01 26° 72° (ENE) 22:03:42 434.975-435.025
Oscar 11 22 May 22:05:52 22:10:07 54° 260° (W) 22:14:23 145.826/435.025
ANTELSAT 22 May 22:14:13 22:14:38 10° 90° (E) 22:15:24 437.575/2403.000
HUMSAT D 22 May 22:15:44 22:19:47 41° 75° (ENE) 22:23:52 437.325/437.525
UWE-3 22 May 22:16:23 22:21:00 62° 260° (W) 22:25:39 435.000/436.395/437.385
AISAT 22 May 22:21:41 22:25:15 25° 72° (ENE) 22:28:57 437.250
AIST 1 22 May 22:34:23 22:35:50 11° 287° (WNW) 22:37:00
FUNcube-1 22 May 22:39:43 22:44:04 42° 262° (W) 22:48:26 145.935
50 SAT 22 May 22:43:25 22:47:17 48° 76° (ENE) 22:51:10 437.505
TIGRISAT 22 May 22:46:28 22:50:10 27° 96° (E) 22:53:52 435.000
DELFI C3 22 May 22:48:34 22:51:42 21° 265° (W) 22:54:43 145.870
CUBEBUG 2 22 May 22:56:59 23:00:14 18° 267° (W) 23:03:20 437.445
NANOSAT C BR1 22 May 23:02:21 23:05:10 18° 94° (E) 23:08:08 145.865
UNISAT 6 22 May 23:04:21 23:08:36 48° 99° (E) 23:12:45 437.425
Cosmos 2504 22 May 23:04:24 23:10:56 37° 270° (W) 23:17:21 435.465 / 435.565
QB50P2 22 May 23:06:28 23:09:39 21° 95° (E) 23:12:56 145.880/145.840
ESTCUBE 1 22 May 23:11:32 23:15:52 53° 75° (ENE) 23:20:15 437.505/2401.250
POPSAT HIP 1 22 May 23:19:32 23:23:16 29° 97° (E) 23:27:01 437.405
GONETS M04 22 May 23:20:09 23:20:28 10° 63° (ENE) 23:21:45
ZACube-1 22 May 23:20:11 23:22:52 15° 268° (W) 23:25:20 437.345
DUCHIFAT 1 22 May 23:25:20 23:29:12 34° 98° (E) 23:33:05 145.980
CUSAT 1 22 May 23:25:29 23:28:08 13° 61° (ENE) 23:31:05 437.405
VELOX 1 22 May 23:27:26 23:31:44 51° 261° (W) 23:36:03 145.980
UKube-1 22 May 23:31:10 23:34:32 22° 264° (W) 23:37:50 .
DX 1 22 May 23:33:05 23:36:16 19° 265° (W) 23:39:21 434.975-435.025
CUBEBUG 1 22 May 23:39:19 23:43:38 81° 258° (WSW) 23:48:00 437.445
TISAT 1 22 May 23:44:00 23:46:48 18° 71° (ENE) 23:49:47 437.305
ANTELSAT 22 May 23:47:34 23:51:48 47° 285° (WNW) 23:55:54 437.575/2403.000
HUMSAT D 22 May 23:53:50 23:55:45 12° 268° (W) 23:57:23 437.325/437.525
AISAT 22 May 23:58:22 00:01:48 21° 265° (W) 00:05:08 437.250
DANDE 23 May 00:02:26 00:08:20 24° 67° (ENE) 00:13:39 436.750
POLYITAN 1 23 May 00:03:02 00:07:19 72° 283° (WNW) 00:11:32 437.675
QB50P1 23 May 00:03:42 00:07:59 72° 283° (WNW) 00:12:12 145.935-145.965
ISS 23 May 00:04:39 00:07:42 41° 131° (SE) 00:10:47 145.825
BUGSAT 1 23 May 00:09:32 00:13:50 86° 102° (ESE) 00:18:04 437.445
TIGRISAT 23 May 00:23:37 00:26:46 19° 289° (WNW) 00:29:43 435.000
SPROUT 23 May 00:36:23 00:40:40 68° 259° (W) 00:44:59 437.525
NANOSAT C BR1 23 May 00:37:22 00:41:02 27° 287° (WNW) 00:44:36 145.865
QB50P2 23 May 00:42:02 00:45:30 24° 287° (WNW) 00:48:51 145.880/145.840
UNISAT 6 23 May 00:43:36 00:44:59 11° 291° (WNW) 00:46:04 437.425
POPSAT HIP 1 23 May 00:56:04 00:58:57 17° 289° (WNW) 01:01:38 437.405
DUCHIFAT 1 23 May 01:02:15 01:04:45 15° 289° (WNW) 01:07:03 145.980
CUSAT 1 23 May 01:04:57 01:12:19 84° 264° (W) 01:17:58 437.405
GONETS M04 23 May 01:10:19 01:19:07 76° 83° (E) 01:27:50
PCSat 23 May 01:14:57 01:20:03 46° 111° (ESE) 01:25:14 145.827
TISAT 1 23 May 01:18:47 01:22:25 27° 264° (W) 01:26:00 437.305
ITUPSAT 1 23 May 01:33:11 01:37:45 50° 75° (ENE) 01:42:22 437.325
VERMONT LUNAR 23 May 01:37:56 01:38:55 11° 140° (SE) 01:40:00 437.305
ISS 23 May 01:42:23 01:44:18 14° 325° (NW) 01:46:08 145.825
BEESAT 23 May 01:43:45 01:48:28 69° 75° (ENE) 01:53:12 436.000
DANDE 23 May 01:44:36 01:52:13 52° 269° (W) 01:58:13 436.750
SWISSCUBE 23 May 01:51:27 01:56:12 88° 257° (WSW) 02:00:59 437.505
Cosmos 2499 23 May 01:54:30 01:59:16 20° 72° (ENE) 02:04:24 435.465 / 435.565
Oscar 19 23 May 02:08:21 02:13:29 68° 101° (E) 02:18:35 437.125/150
ITAMSAT 1 23 May 02:13:26 02:16:55 19° 94° (E) 02:20:36 435.822/435.867
Gurwin Techsat 1B 23 May 02:23:50 02:27:54 23° 95° (E) 02:32:06 435.225
STARS 23 May 02:41:46 02:45:27 27° 73° (ENE) 02:49:15 437.465
PHONESAT 2.4 23 May 02:48:38 02:50:01 12° 140° (SE) 02:51:32 2401.200-2431.200
O/OREOS (USA 219) 23 May 02:49:58 02:54:24 67° 70° (ENE) 02:58:50 437.305
PCSat 23 May 02:59:49 03:03:44 19° 306° (NW) 03:07:30 145.827
KKS-1 23 May 03:01:49 03:06:16 83° 79° (ENE) 03:10:47 437.445
GONETS M04 23 May 03:09:50 03:15:11 17° 276° (W) 03:19:54
VERMONT LUNAR 23 May 03:12:38 03:15:51 82° 334° (NNW) 03:19:03 437.305
ITUPSAT 1 23 May 03:14:01 03:15:59 12° 268° (W) 03:17:37 437.325
SO-50 23 May 03:32:38 03:36:51 38° 113° (ESE) 03:41:17 436.795
AO-7 23 May 03:33:45 03:39:17 20° 94° (E) 03:45:16 29.400- 29.500
Cosmos 2499 23 May 03:46:01 03:52:49 52° 268° (W) 03:59:41 435.465 / 435.565
Oscar 19 23 May 03:50:45 03:52:21 11° 293° (WNW) 03:53:35 437.125/150
HORYU 2 23 May 03:51:09 03:54:51 26° 96° (E) 03:58:36 437.375
ITAMSAT 1 23 May 03:51:44 03:56:35 39° 287° (WNW) 04:01:23 435.822/435.867
BEESAT 3 23 May 03:54:01 03:57:04 20° 55° (NE) 04:00:09 437.485
MOZHAYETS 4 23 May 03:59:13 04:02:41 22° 72° (ENE) 04:06:17
Gurwin Techsat 1B 23 May 04:03:11 04:07:56 33° 288° (WNW) 04:12:36 435.225
STARS 23 May 04:18:36 04:21:55 20° 265° (W) 04:25:05 437.465
PHONESAT 2.4 23 May 04:24:23 04:27:51 85° 328° (NNW) 04:31:19 2401.200-2431.200
JAS-2 23 May 04:27:21 04:32:28 60° 101° (E) 04:37:45 435.910
BEESAT 2 23 May 04:35:55 04:39:54 50° 60° (ENE) 04:43:49 435.950
VERMONT LUNAR 23 May 04:51:01 04:53:23 19° 346° (NNW) 04:55:44 437.305
SO-50 23 May 05:14:12 05:17:35 19° 309° (NW) 05:20:54 436.795
AO-7 23 May 05:24:25 05:32:43 69° 289° (WNW) 05:40:59 29.400- 29.500
CUBESAT XI-V 23 May 05:26:41 05:28:56 14° 70° (ENE) 05:31:27 437.345
HORYU 2 23 May 05:28:03 05:31:21 20° 289° (WNW) 05:34:31 437.375
BEESAT 3 23 May 05:31:41 05:35:00 24° 249° (WSW) 05:38:12 437.485
AIST 2 23 May 05:35:01 05:39:11 64° 61° (ENE) 05:43:16 435.215
MOZHAYETS 4 23 May 05:35:57 05:39:49 26° 264° (W) 05:43:35
Cubesat XI-IV 23 May 05:52:42 05:54:53 13° 91° (E) 05:57:26 437.490
PHONESAT 2.4 23 May 06:03:35 06:06:18 21° 346° (NNW) 06:08:59 2401.200-2431.200
M-CUBED/EXP-1 PRIME 23 May 06:05:27 06:07:28 13° 68° (ENE) 06:09:39 437.505
JAS-2 23 May 06:15:30 06:17:13 11° 293° (WNW) 06:18:36 435.910
AUBIESAT-1 23 May 06:17:20 06:19:53 16° 68° (ENE) 06:22:32 437.475
VERMONT LUNAR 23 May 06:29:44 06:31:22 13° 3° (N) 06:33:01 437.305
STRAND 1 23 May 06:33:58 06:38:31 35° 73° (ENE) 06:43:09 437.568
Cosmos 2491 23 May 06:54:05 07:02:34 51° 79° (E) 07:11:03 435.465 / 435.565
CUBESAT XI-V 23 May 07:01:43 07:06:04 42° 262° (W) 07:10:25 437.345
PRISM 23 May 07:05:21 07:09:26 82° 258° (WSW) 07:13:32 437.425
CUTE-I 23 May 07:10:47 07:16:11 89° 96° (E) 07:21:34 437.470
AO-7 23 May 07:22:00 07:24:18 11° 304° (NW) 07:25:54 29.400- 29.500
Cubesat XI-IV 23 May 07:30:08 07:35:24 58° 286° (WNW) 07:40:40 437.490
M-CUBED/EXP-1 PRIME 23 May 07:37:46 07:42:05 43° 256° (WSW) 07:46:07 437.505
BRITE-PL 23 May 07:38:40 07:41:21 14° 89° (E) 07:44:19 437.365/2234.400
YUBILEINY 23 May 07:39:38 07:48:03 55° 91° (E) 07:56:32 435.215
PHONESAT 2.4 23 May 07:43:07 07:45:13 15° 3° (N) 07:47:19 2401.200-2431.200
RS-15 23 May 07:44:36 07:50:41 18° 104° (ESE) 07:57:38 29.354- 29.394
AUBIESAT-1 23 May 07:50:22 07:54:28 35° 257° (WSW) 07:58:18 437.475
GOMX 1 23 May 08:03:19 08:06:05 15° 90° (E) 08:09:04 467.674
VERMONT LUNAR 23 May 08:06:32 08:09:16 25° 19° (NNE) 08:12:01 437.305
ISS 23 May 08:12:48 08:15:52 38° 42° (NE) 08:18:57 145.825
STRAND 1 23 May 08:14:05 08:17:50 20° 266° (W) 08:21:24 437.568
CANX-2 23 May 08:28:38 08:30:53 15° 93° (E) 08:33:20 2200.000
CUTE 1.7 + AOD 2 23 May 08:32:51 08:35:07 15° 93° (E) 08:37:35 437.475
HO-68 23 May 08:39:48 08:45:48 30° 96° (E) 08:51:58 435.675
AIST 1 23 May 08:43:57 08:48:20 83° 265° (W) 08:52:43
Cosmos 2491 23 May 08:51:52 08:59:04 28° 273° (W) 09:05:54 435.465 / 435.565
SEEDS 23 May 09:01:12 09:04:44 27° 96° (E) 09:08:19 437.485
BRITE-PL 23 May 09:14:45 09:20:19 59° 285° (WNW) 09:25:38 437.365/2234.400
CUBEBUG 2 23 May 09:19:11 09:19:55 10° 90° (E) 09:20:59 437.445
PHONESAT 2.4 23 May 09:20:59 09:24:02 28° 19° (NNE) 09:27:06 2401.200-2431.200
COMPASS 1 23 May 09:21:06 09:24:58 38° 98° (E) 09:28:50 437.405
DOVE 4 23 May 09:22:58 09:28:07 70° 100° (E) 09:32:57 437.250
CINEMA 3 23 May 09:32:44 09:37:08 38° 97° (E) 09:41:22 145.822/145.860
AAUSAT CUBESAT 2 23 May 09:36:48 09:40:50 52° 99° (E) 09:44:52 437.432
YUBILEINY 23 May 09:38:12 09:45:21 26° 288° (WNW) 09:52:07 435.215
ZACube-1 23 May 09:39:19 09:40:17 11° 90° (E) 09:41:33 437.345
GOMX 1 23 May 09:39:21 09:44:34 50° 286° (WNW) 09:49:30 467.674
TIGRISAT 23 May 09:40:48 09:43:09 14° 70° (ENE) 09:45:45 435.000
Cosmos 2504 23 May 09:41:56 09:49:06 32° 89° (E) 09:56:08 435.465 / 435.565
VERMONT LUNAR 23 May 09:43:28 09:46:35 49° 213° (SSW) 09:49:42 437.305
ISS 23 May 09:50:36 09:52:03 12° 233° (SW) 09:53:23 145.825
RS-15 23 May 09:51:06 10:02:00 84° 297° (WNW) 10:13:08 29.354- 29.394
UNISAT 6 23 May 09:57:57 10:01:36 23° 72° (ENE) 10:05:22 437.425
Oscar 11 23 May 09:59:00 10:03:03 40° 98° (E) 10:07:06 145.826/435.025
CANX-2 23 May 10:03:09 10:06:56 32° 286° (WNW) 10:10:38 2200.000
CUTE 1.7 + AOD 2 23 May 10:07:23 10:11:09 31° 286° (WNW) 10:14:51 437.475
POPSAT HIP 1 23 May 10:09:06 10:10:20 11° 70° (ENE) 10:11:50 437.405
PCSat 23 May 10:10:52 10:12:47 12° 50° (NE) 10:14:59 145.827
UWE-3 23 May 10:12:38 10:16:47 40° 98° (E) 10:20:48 435.000/436.395/437.385
DUCHIFAT 1 23 May 10:13:58 10:15:47 13° 70° (ENE) 10:17:49 145.980
HO-68 23 May 10:27:01 10:33:37 41° 290° (WNW) 10:40:07 435.675
DELFI C3 23 May 10:32:22 10:36:22 79° 99° (E) 10:40:23 145.870
FUNcube-1 23 May 10:34:00 10:38:15 56° 100° (E) 10:42:23 145.935
SEEDS 23 May 10:37:32 10:40:21 17° 288° (WNW) 10:43:02 437.485
ANTELSAT 23 May 10:40:00 10:44:41 73° 77° (ENE) 10:49:23 437.575/2403.000
POLYITAN 1 23 May 10:50:19 10:54:17 39° 74° (ENE) 10:58:20 437.675
QB50P1 23 May 10:50:44 10:54:40 38° 74° (ENE) 10:58:40 145.935-145.965
CUBEBUG 2 23 May 10:52:41 10:57:00 47° 285° (WNW) 11:01:08 437.445
BUGSAT 1 23 May 10:54:26 10:57:50 26° 73° (ENE) 11:01:21 437.445
COMPASS 1 23 May 10:58:31 11:00:20 12° 290° (WNW) 11:01:57 437.405
PHONESAT 2.4 23 May 10:58:54 11:02:16 49° 214° (SSW) 11:05:37 2401.200-2431.200
DOVE 4 23 May 11:04:10 11:05:14 10° 293° (WNW) 11:05:57 437.250
ESTCUBE 1 23 May 11:10:57 11:13:57 18° 94° (E) 11:17:07 437.505/2401.250
CINEMA 3 23 May 11:11:05 11:14:00 16° 291° (WNW) 11:16:38 145.822/145.860
ZACube-1 23 May 11:12:50 11:16:58 43° 285° (WNW) 11:20:58 437.345
TIGRISAT 23 May 11:15:04 11:19:34 44° 261° (W) 11:24:03 435.000
UKube-1 23 May 11:23:09 11:27:31 84° 283° (WNW) 11:31:52 .
NANOSAT C BR1 23 May 11:23:19 11:27:35 80° 258° (WSW) 11:31:52 145.865
VELOX 1 23 May 11:23:35 11:27:54 46° 99° (E) 11:32:12 145.980
DX 1 23 May 11:25:40 11:30:04 72° 284° (WNW) 11:34:25 434.975-435.025
QB50P2 23 May 11:28:13 11:32:28 66° 259° (W) 11:36:44 145.880/145.840
CUBEBUG 1 23 May 11:34:15 11:38:06 29° 97° (E) 11:42:00 437.445
Cosmos 2504 23 May 11:34:17 11:42:20 43° 281° (WNW) 11:49:52 435.465 / 435.565
UNISAT 6 23 May 11:34:17 11:38:16 26° 264° (W) 11:42:09 437.425
Oscar 11 23 May 11:36:53 11:38:55 13° 290° (WNW) 11:40:42 145.826/435.025
HUMSAT D 23 May 11:41:07 11:45:06 44° 285° (WNW) 11:49:01 437.325/437.525
POPSAT HIP 1 23 May 11:41:45 11:45:51 45° 261° (W) 11:49:58 437.405
JUGNU 23 May 11:45:40 11:50:01 21° 168° (SSE) 11:54:23 437.505
DUCHIFAT 1 23 May 11:47:17 11:51:16 39° 261° (W) 11:55:17 145.980
UWE-3 23 May 11:50:52 11:52:57 13° 291° (WNW) 11:54:47 435.000/436.395/437.385
PCSat 23 May 11:51:28 11:56:54 78° 247° (WSW) 12:02:17 145.827
AISAT 23 May 11:53:33 11:58:02 71° 284° (WNW) 12:02:29 437.250
50 SAT 23 May 12:00:08 12:03:51 44° 285° (WNW) 12:07:31 437.505
RS-15 23 May 12:08:36 12:16:26 20° 322° (NW) 12:23:54 29.354- 29.394
GONETS M04 23 May 12:11:59 12:16:17 16° 83° (E) 12:21:19
CUSAT 1 23 May 12:22:11 12:26:36 20° 84° (E) 12:31:58 437.405
POLYITAN 1 23 May 12:28:23 12:30:24 13° 268° (W) 12:32:10 437.675
QB50P1 23 May 12:28:45 12:30:45 13° 268° (W) 12:32:29 145.935-145.965
SPROUT 23 May 12:29:07 12:32:59 32° 97° (E) 12:36:52 437.525
BUGSAT 1 23 May 12:30:32 12:33:20 17° 266° (W) 12:36:00 437.445
ESTCUBE 1 23 May 12:46:53 12:50:53 31° 287° (WNW) 12:54:49 437.505/2401.250
SRMSAT 23 May 12:55:22 12:59:11 18° 165° (SSE) 13:03:04 437.500
VELOX 1 23 May 13:02:08 13:04:05 12° 291° (WNW) 13:05:47 145.980
DANDE 23 May 13:04:13 13:09:39 34° 87° (E) 13:16:27 436.750
TISAT 1 23 May 13:08:15 13:12:31 72° 101° (E) 13:16:45 437.305
CUBEBUG 1 23 May 13:11:07 13:14:17 19° 289° (WNW) 13:17:17 437.445
Oscar 19 23 May 13:19:22 13:24:23 54° 75° (ENE) 13:29:29 437.125/150
ITAMSAT 1 23 May 13:26:37 13:29:37 16° 68° (ENE) 13:32:52 435.822/435.867
